QFA642 AGGH-YSSY

Flight info

Callsign QFA642
Flight time N/A
Altitude 36000
Route RIPN1A DASSA A598 PUGEL/N0462F380 A598 PONUX/N0461F370 DCT ATROP/N0464F380 DCT MUDDL Q35 SANEG H91 IGDAM/N0455F390 H652 BOREE
Aircraft B738/M-SDE2E3FGHIRWXY/LB1

Departure

Time 2026-05-07 13:11
Airport Honiara International Airport (AGGH)

Arrival

Time N/A
Airport Sydney Kingsford Smith International Airport (YSSY)
Time Latitude Longitude Altitude Speed Heading
2026-05-07 12:40 -9.42915 160.04912 27 ft 0 kts 68°
2026-05-07 13:08 -9.42913 160.04918 27 ft 4 kts 68°
2026-05-07 13:08 -9.42934 160.04980 28 ft 13 kts 149°
2026-05-07 13:09 -9.43018 160.04960 25 ft 14 kts 233°
2026-05-07 13:09 -9.43062 160.04853 27 ft 20 kts 248°
2026-05-07 13:09 -9.43123 160.04699 25 ft 26 kts 248°
2026-05-07 13:09 -9.43163 160.04603 30 ft 4 kts 234°
2026-05-07 13:10 -9.43200 160.04582 28 ft 9 kts 219°
2026-05-07 13:10 -9.43194 160.04534 27 ft 4 kts 339°
2026-05-07 13:10 -9.43170 160.04562 27 ft 10 kts 81°
2026-05-07 13:10 -9.43113 160.04719 26 ft 53 kts 68°
2026-05-07 13:11 -9.42879 160.05307 31 ft 124 kts 68°
2026-05-07 13:11 -9.42488 160.06300 203 ft 167 kts 70°
2026-05-07 13:11 -9.42082 160.07398 978 ft 169 kts 69°
2026-05-07 13:11 -9.41643 160.08479 1842 ft 165 kts 69°
2026-05-07 13:12 -9.41084 160.09560 2326 ft 195 kts 50°
2026-05-07 13:12 -9.39779 160.10183 2572 ft 229 kts
2026-05-07 13:12 -9.38188 160.09727 2901 ft 252 kts 327°
2026-05-07 13:12 -9.37065 160.08352 3423 ft 264 kts 291°
2026-05-07 13:13 -9.36929 160.06488 3953 ft 273 kts 253°
2026-05-07 13:13 -9.37906 160.04875 4754 ft 271 kts 216°
2026-05-07 13:13 -9.39575 160.04129 5688 ft 262 kts 187°
2026-05-07 13:13 -9.41388 160.03897 6521 ft 265 kts 184°
2026-05-07 13:14 -9.43242 160.03718 7294 ft 269 kts 184°
2026-05-07 13:14 -9.45094 160.03333 8103 ft 274 kts 195°
2026-05-07 13:14 -9.46912 160.02716 8931 ft 277 kts 198°
2026-05-07 13:14 -9.48739 160.02046 9760 ft 281 kts 199°
2026-05-07 13:15 -9.50586 160.01365 10492 ft 285 kts 199°
2026-05-07 13:15 -9.52464 160.00680 11226 ft 289 kts 198°
2026-05-07 13:15 -9.54376 159.99990 11824 ft 299 kts 198°
2026-05-07 13:15 -9.56425 159.99260 11999 ft 324 kts 198°
2026-05-07 13:16 -9.58627 159.98481 12175 ft 346 kts 198°
2026-05-07 13:16 -9.60968 159.97657 12334 ft 366 kts 197°
2026-05-07 13:16 -9.63426 159.96794 12663 ft 379 kts 197°
2026-05-07 13:16 -9.65939 159.95913 13187 ft 384 kts 197°
2026-05-07 13:17 -9.68469 159.95027 13763 ft 387 kts 197°
2026-05-07 13:17 -9.71017 159.94135 14276 ft 390 kts 197°
2026-05-07 13:17 -9.73594 159.93233 14805 ft 393 kts 197°
2026-05-07 13:17 -9.76178 159.92329 15325 ft 395 kts 197°
2026-05-07 13:18 -9.78797 159.91414 15811 ft 399 kts 197°
2026-05-07 13:18 -9.81429 159.90493 16286 ft 402 kts 197°
2026-05-07 13:18 -9.84086 159.89565 16769 ft 405 kts 197°
2026-05-07 13:18 -9.86755 159.88631 17238 ft 408 kts 197°
2026-05-07 13:19 -9.89449 159.87689 17697 ft 411 kts 197°
2026-05-07 13:19 -9.92164 159.86739 18141 ft 414 kts 197°
2026-05-07 13:19 -9.94899 159.85783 18523 ft 417 kts 197°
2026-05-07 13:19 -9.97645 159.84821 18921 ft 419 kts 197°
2026-05-07 13:20 -10.00406 159.83855 19304 ft 422 kts 197°
2026-05-07 13:20 -10.03193 159.82879 19682 ft 424 kts 197°
2026-05-07 13:20 -10.05985 159.81902 20052 ft 427 kts 197°
2026-05-07 13:20 -10.08802 159.80915 20412 ft 429 kts 197°
2026-05-07 13:21 -10.11627 159.79925 20770 ft 431 kts 197°
2026-05-07 13:21 -10.14481 159.78925 21123 ft 434 kts 197°
2026-05-07 13:21 -10.17339 159.77924 21469 ft 436 kts 197°
2026-05-07 13:21 -10.20179 159.76928 21798 ft 439 kts 197°
2026-05-07 13:22 -10.23112 159.75900 22138 ft 441 kts 197°
2026-05-07 13:22 -10.25984 159.74893 22460 ft 443 kts 197°
2026-05-07 13:22 -10.28906 159.73868 22782 ft 446 kts 197°
2026-05-07 13:22 -10.31846 159.72836 23093 ft 448 kts 197°
2026-05-07 13:23 -10.34798 159.71800 23399 ft 450 kts 198°
2026-05-07 13:23 -10.37762 159.70760 23659 ft 452 kts 198°
2026-05-07 13:23 -10.40743 159.69714 23929 ft 453 kts 198°
2026-05-07 13:23 -10.43722 159.68666 24202 ft 454 kts 198°
2026-05-07 13:24 -10.46715 159.67611 24457 ft 456 kts 198°
2026-05-07 13:24 -10.49721 159.66552 24707 ft 457 kts 198°
2026-05-07 13:24 -10.52732 159.65490 24952 ft 459 kts 198°
2026-05-07 13:24 -10.55752 159.64426 25203 ft 460 kts 198°
2026-05-07 13:25 -10.58781 159.63358 25444 ft 462 kts 198°
2026-05-07 13:25 -10.61814 159.62288 25692 ft 463 kts 199°
2026-05-07 13:25 -10.64867 159.61211 25896 ft 465 kts 199°
2026-05-07 13:25 -10.67924 159.60133 26119 ft 466 kts 199°
2026-05-07 13:26 -10.70998 159.59048 26343 ft 468 kts 199°
2026-05-07 13:26 -10.74072 159.57963 26586 ft 469 kts 199°
2026-05-07 13:26 -10.77150 159.56877 26808 ft 470 kts 199°
2026-05-07 13:26 -10.80248 159.55782 27028 ft 471 kts 199°
2026-05-07 13:27 -10.83354 159.54686 27229 ft 473 kts 200°
2026-05-07 13:27 -10.86466 159.53586 27443 ft 474 kts 199°
2026-05-07 13:27 -10.89581 159.52486 27639 ft 475 kts 200°
2026-05-07 13:27 -10.92705 159.51381 27836 ft 476 kts 200°
2026-05-07 13:28 -10.95843 159.50272 28008 ft 478 kts 200°
2026-05-07 13:28 -10.98982 159.49162 28223 ft 478 kts 200°
2026-05-07 13:28 -11.02113 159.48055 28404 ft 480 kts 201°
2026-05-07 13:28 -11.05267 159.46941 28600 ft 481 kts 200°
2026-05-07 13:29 -11.08426 159.45827 28786 ft 481 kts 200°
2026-05-07 13:29 -11.11591 159.44710 29047 ft 481 kts 200°
2026-05-07 13:29 -11.14748 159.43597 29313 ft 480 kts 201°
2026-05-07 13:29 -11.17902 159.42483 29599 ft 479 kts 200°
2026-05-07 13:30 -11.21044 159.41374 29847 ft 479 kts 201°
2026-05-07 13:30 -11.24185 159.40264 30091 ft 478 kts 201°
2026-05-07 13:30 -11.27330 159.39153 30328 ft 477 kts 201°
2026-05-07 13:30 -11.30462 159.38045 30588 ft 476 kts 201°
2026-05-07 13:31 -11.33590 159.36939 30838 ft 475 kts 201°
2026-05-07 13:31 -11.36707 159.35837 31095 ft 474 kts 201°
2026-05-07 13:31 -11.39821 159.34735 31353 ft 473 kts 201°
2026-05-07 13:31 -11.42929 159.33635 31617 ft 473 kts 200°
2026-05-07 13:32 -11.46035 159.32536 31881 ft 472 kts 201°
2026-05-07 13:32 -11.49132 159.31439 32158 ft 471 kts 200°
2026-05-07 13:32 -11.52229 159.30343 32445 ft 470 kts 201°
2026-05-07 13:32 -11.55310 159.29251 32723 ft 469 kts 200°
2026-05-07 13:33 -11.58393 159.28159 33007 ft 468 kts 200°
2026-05-07 13:33 -11.61421 159.27086 33283 ft 467 kts 200°
2026-05-07 13:33 -11.64493 159.25997 33586 ft 466 kts 200°
2026-05-07 13:33 -11.67547 159.24914 33920 ft 464 kts 200°
2026-05-07 13:34 -11.70593 159.23834 34220 ft 462 kts 200°
2026-05-07 13:34 -11.76661 159.21681 34675 ft 462 kts 200°
2026-05-07 13:34 -11.79692 159.20606 34898 ft 462 kts 201°
2026-05-07 13:35 -11.82724 159.19529 35149 ft 460 kts 201°
2026-05-07 13:35 -11.85744 159.18457 35396 ft 460 kts 201°
2026-05-07 13:35 -11.88773 159.17381 35604 ft 460 kts 201°
2026-05-07 13:35 -11.91792 159.16309 35830 ft 460 kts 201°
2026-05-07 13:36 -11.94821 159.15233 35878 ft 463 kts 201°
2026-05-07 13:36 -12.00918 159.13065 35892 ft 464 kts 201°
2026-05-07 13:37 -12.06979 159.10911 35890 ft 458 kts 201°
2026-05-07 13:37 -12.12981 159.08777 35897 ft 456 kts 201°
2026-05-07 13:38 -12.18968 159.06645 35899 ft 455 kts 201°
2026-05-07 13:38 -12.24946 159.04516 35900 ft 455 kts 201°
2026-05-07 13:39 -12.30921 159.02387 35904 ft 455 kts 201°
2026-05-07 13:39 -12.36915 159.00251 35904 ft 457 kts 201°
2026-05-07 13:40 -12.42832 158.98140 35903 ft 458 kts 201°
2026-05-07 13:40 -12.48859 158.95990 35903 ft 459 kts 201°
2026-05-07 13:41 -12.54901 158.93833 35901 ft 461 kts 201°
2026-05-07 13:41 -12.60960 158.91670 35905 ft 462 kts 201°
2026-05-07 13:42 -12.67034 158.89500 35900 ft 462 kts 201°
2026-05-07 13:42 -12.73066 158.87343 35902 ft 462 kts 201°
2026-05-07 13:43 -12.79139 158.85171 35899 ft 462 kts 201°
2026-05-07 13:43 -12.85208 158.82999 35902 ft 462 kts 201°
2026-05-07 13:44 -12.91271 158.80828 35905 ft 461 kts 201°
2026-05-07 13:44 -12.97324 158.78660 35907 ft 460 kts 202°
2026-05-07 13:45 -13.03361 158.76497 35905 ft 460 kts 202°
2026-05-07 13:45 -13.09387 158.74336 35906 ft 459 kts 202°
2026-05-07 13:46 -13.15413 158.72174 35903 ft 458 kts 202°
2026-05-07 13:46 -13.21424 158.70016 35903 ft 457 kts 202°
2026-05-07 13:47 -13.27436 158.67856 35908 ft 457 kts 202°
2026-05-07 13:47 -13.33434 158.65701 35911 ft 457 kts 202°
2026-05-07 13:48 -13.39435 158.63544 35907 ft 457 kts 202°
2026-05-07 13:48 -13.45435 158.61385 35912 ft 456 kts 202°
2026-05-07 13:49 -13.51426 158.59229 35911 ft 456 kts 202°
2026-05-07 13:49 -13.57422 158.57070 35913 ft 457 kts 202°
2026-05-07 13:50 -13.63415 158.54910 35912 ft 457 kts 202°
2026-05-07 13:50 -13.69414 158.52747 35914 ft 457 kts 202°
2026-05-07 13:51 -13.74405 158.50947 35913 ft 457 kts 202°
2026-05-07 13:51 -13.81382 158.48429 35913 ft 457 kts 202°
2026-05-07 13:52 -13.86419 158.46610 35916 ft 458 kts 202°
2026-05-07 13:52 -13.92435 158.44436 35922 ft 458 kts 202°
2026-05-07 13:53 -13.98406 158.42278 35912 ft 458 kts 202°
2026-05-07 13:53 -14.04412 158.40099 35912 ft 458 kts 202°
2026-05-07 13:54 -14.10422 158.37905 35913 ft 458 kts 202°
2026-05-07 13:54 -14.16421 158.35712 35912 ft 457 kts 202°
2026-05-07 13:55 -14.22418 158.33521 35920 ft 457 kts 202°
2026-05-07 13:55 -14.28411 158.31330 35927 ft 457 kts 203°
2026-05-07 13:56 -14.34403 158.29138 35916 ft 457 kts 203°
2026-05-07 13:56 -14.40395 158.26946 35919 ft 456 kts 203°
2026-05-07 13:57 -14.46378 158.24755 35923 ft 456 kts 203°
2026-05-07 13:57 -14.52361 158.22563 35920 ft 456 kts 203°
2026-05-07 13:58 -14.58331 158.20374 35928 ft 456 kts 203°
2026-05-07 13:58 -14.64305 158.18183 35922 ft 455 kts 203°
2026-05-07 13:59 -14.70240 158.16005 35924 ft 455 kts 203°